Weather reports worldwide

Advertisment
Andernach, Germany (10520): temperature & dewpoint: 14.10.2018 16:00:00 - 20.10.2018 16:00:00 (CEST)Andernach, Germany (10520): temperature 5cm & temperature -5cm: 14.10.2018 16:00:00 - 20.10.2018 16:00:00 (CEST)Andernach, Germany (10520): temperature -20cm & temperature -100cm: 14.10.2018 16:00:00 - 20.10.2018 16:00:00 (CEST)Andernach, Germany (10520): wind speed & gusts: 14.10.2018 16:00:00 - 20.10.2018 16:00:00 (CEST)Andernach, Germany (10520): wind direction: 14.10.2018 16:00:00 - 20.10.2018 16:00:00 (CEST)Andernach, Germany (10520): reduced air pressure: 14.10.2018 16:00:00 - 20.10.2018 16:00:00 (CEST)Andernach, Germany (10520): visibility: 14.10.2018 16:00:00 - 20.10.2018 16:00:00 (CEST)Andernach, Germany (10520): sunshine duration: 14.10.2018 16:00:00 - 20.10.2018 16:00:00 (CEST)Andernach, Germany (10520): precipitation: 14.10.2018 16:00:00 - 20.10.2018 16:00:00 (CEST)
Date & Time tt [°C] td [°C] tt 5cm [°C] tt -5cm [°C] tt -20cm [°C] tt -100cm [°C] ff [km/h] ff [kn] fx [km/h] fx [kn] dd ppp [hPa] vv [km] sd [min] rr [mm]
20.10.2018 16:00:00 14,6 6,0 16,4 17,9 14,1 15,9 12 6 21 11 NNW 1029,7 29 57 0,0
20.10.2018 15:00:00 14,3 6,7 18,3 17,6 13,7 15,9 9 5 17 9 NW 1030,1 18 60 0,0
20.10.2018 14:00:00 13,5 7,2 17,6 16,4 13,5 15,9 11 6 22 12 NW 1030,9 15 55 0,0
20.10.2018 13:00:00 12,4 7,3 16,6 14,7 13,3 15,9 9 5 22 12 WNW 1031,1 11 60 0,0
20.10.2018 12:00:00 11,0 7,5 14,1 13,0 13,3 15,9 12 7 18 10 NW 1031,5 8 29 0,0
20.10.2018 11:00:00 10,1 7,9 11,7 11,9 13,3 15,9 9 5 17 9 NNW 1031,3 7 0 0,0
20.10.2018 10:00:00 9,3 7,7 10,1 11,2 13,4 15,9 7 4 18 10 NW 1030,7 5 0 0,0
20.10.2018 09:00:00 9,1 7,8 9,1 10,9 13,5 15,9 14 7 20 11 N 1030,3 5 0 0,0
20.10.2018 08:00:00 9,1 8,1 8,7 10,7 13,7 15,9 8 5 29 15 NNW 1029,3 4,2 0 0,0
20.10.2018 07:00:00 9,2 8,0 7,8 10,7 13,9 15,9 12 6 22 12 NW 1028,5 4,6 0 0,0
20.10.2018 06:00:00 9,2 8,4 7,9 11,0 14,0 15,9 11 6 25 14 NNW 1028,3 4,5 0 0,0
20.10.2018 05:00:00 9,6 8,2 8,4 11,4 14,2 15,9 5 3 19 10 NNE 1027,6 6 0 0,0
20.10.2018 04:00:00 9,8 8,5 9,0 11,4 14,4 15,9 8 5 13 7 N 1027,1 6 0 0,0
20.10.2018 03:00:00 9,6 8,6 6,7 11,9 14,6 15,9 3 2 11 6 E 1026,8 5 0 0,0
20.10.2018 02:00:00 10,4 9,0 9,5 12,3 14,7 15,9 9 5 14 8 N 1026,7 7 0 0,0
20.10.2018 01:00:00 10,8 9,1 8,7 12,7 14,9 15,9 4 2 14 8 NNE 1026,4 9 0 0,0
20.10.2018 00:00:00 11,4 9,5 10,3 13,0 15,1 15,9 10 5 15 8 NW 1025,9 10 0 0,0
19.10.2018 23:00:00 12,1 9,7 9,9 13,7 15,2 15,9 6 3 11 6 N 1025,7 11 0 0,0
19.10.2018 22:00:00 12,9 9,6 10,5 14,6 15,3 15,9 3 2 18 10 W 1025,3 13 0 0,0
19.10.2018 21:00:00 14,4 10,0 13,8 15,2 15,4 15,9 9 5 18 10 NW 1024,9 16 0 0,0
19.10.2018 20:00:00 14,9 10,2 14,3 15,5 15,4 15,9 7 4 16 9 NNW 1024,2 19 0 0,0
19.10.2018 19:00:00 14,8 10,0 12,5 16,6 15,3 15,9 8 4 14 7 NNW 1023,3 18 0 0,0
19.10.2018 18:00:00 16,1 10,0 15,1 18,2 15,0 15,9 9 5 16 9 NNW 1022,8 21 29 0,0
19.10.2018 17:00:00 17,0 10,0 18,2 19,4 14,7 15,9 7 4 12 7 NW 1022,9 22 60 0,0
19.10.2018 16:00:00 17,1 9,6 20,5 19,5 14,2 15,9 6 3 11 6 N 1023,0 18 60 0,0
19.10.2018 15:00:00 16,8 9,3 20,7 18,4 13,9 15,9 2 1 10 5 ESE 1023,4 18 59 0,0
19.10.2018 14:00:00 15,9 9,4 19,4 16,6 13,6 15,9 3 1 10 5 NNE 1023,8 17 17 0,0
19.10.2018 13:00:00 14,1 9,4 16,2 15,1 13,4 15,9 4 2 8 4 N 1024,5 16 15 0,0
19.10.2018 12:00:00 13,1 8,9 16,7 13,3 13,4 15,9 5 3 10 5 NNW 1024,9 17 30 0,0
19.10.2018 11:00:00 11,0 8,9 12,3 11,7 13,4 15,9 6 3 10 5 NNW 1025,3 11 0 0,0
19.10.2018 10:00:00 9,7 8,2 9,5 10,6 13,6 15,9 4 2 9 5 WSW 1025,1 9 0 0,0
19.10.2018 09:00:00 7,4 6,5 7,4 9,6 13,8 15,9 4 2 7 4 SW 1024,8 9 0 0,0
19.10.2018 08:00:00 6,5 5,7 5,4 9,5 14,1 15,9 5 3 8 5 SSW 1024,5 9 0 0,0
19.10.2018 07:00:00 6,7 6,0 4,1 10,0 14,3 15,9 4 2 8 5 SW 1024,2 9 0 0,0
19.10.2018 06:00:00 7,3 6,5 5,0 10,5 14,6 15,9 4 2 8 4 SSW 1024,1 13 0 0,0
19.10.2018 05:00:00 8,1 7,3 5,9 11,1 14,8 15,9 3 2 9 5 NW 1023,9 13 0 0,0
19.10.2018 04:00:00 9,0 7,9 4,8 11,8 15,0 15,9 4 2 8 4 WSW 1023,6 17 0 0,0
19.10.2018 03:00:00 11,0 8,7 5,2 12,7 15,2 15,9 4 2 11 6 WNW 1023,6 28 0 0,0
19.10.2018 02:00:00 12,7 9,3 8,0 13,6 15,3 15,9 4 2 14 7 WNW 1023,7 35 0 0,0
19.10.2018 01:00:00 14,5 9,3 12,4 14,3 15,4 15,9 6 3 11 6 NNW 1023,6 46 0 0,0
19.10.2018 00:00:00 15,0 9,2 13,2 14,6 15,4 15,9 5 3 9 5 NNW 1023,7 43 0 0,0
18.10.2018 23:00:00 15,2 9,5 14,1 14,8 15,5 15,9 5 3 10 6 NNW 1023,5 38 0 0,0
18.10.2018 22:00:00 15,4 9,7 14,3 14,9 15,6 15,9 4 2 10 6 NW 1023,3 31 0 0,0
18.10.2018 21:00:00 15,5 10,0 12,6 15,2 15,7 15,9 5 3 13 7 NNW 1022,8 26 0 0,0
18.10.2018 20:00:00 16,3 10,1 14,8 15,7 15,7 15,9 4 2 16 9 N 1022,7 24 0 0,0
18.10.2018 19:00:00 16,6 11,0 15,0 16,4 15,7 15,9 8 4 16 8 NNW 1022,4 18 0 0,0
18.10.2018 18:00:00 17,2 11,1 16,8 17,1 15,6 15,9 5 3 19 10 NNW 1021,9 18 0 0,0
18.10.2018 17:00:00 17,4 11,4 17,7 17,4 15,4 15,9 10 5 18 10 NNW 1022,1 16 0 0,0
18.10.2018 16:00:00 16,9 11,9 17,2 17,2 15,3 15,9 9 5 21 11 N 1022,4 9 0 0,0
18.10.2018 15:00:00 16,7 12,0 17,7 17,4 15,1 15,9 10 5 19 10 NNW 1022,4 6 0 0,0
18.10.2018 14:00:00 16,4 12,0 17,0 17,1 15,0 15,9 11 6 23 13 N 1022,6 6 0 0,0
18.10.2018 13:00:00 16,4 11,9 18,3 17,1 14,8 15,9 6 3 17 9 NW 1022,7 6 0 0,0
18.10.2018 12:00:00 16,0 11,8 17,6 16,0 14,7 15,9 7 4 12 7 SE 1022,8 5 0 0,0
18.10.2018 11:00:00 15,1 11,9 15,9 14,6 14,7 15,9 3 2 8 5 WSW 1022,8 4,4 0 0,0
18.10.2018 10:00:00 13,7 11,4 14,0 13,9 14,7 15,9 6 3 21 11 NE 1022,9 4,0 0 0,0
18.10.2018 09:00:00 13,6 11,8 13,5 13,8 14,8 15,9 15 8 24 13 NNW 1022,3 3,1 0 0,0
18.10.2018 08:00:00 13,6 12,3 13,4 13,8 14,8 15,9 9 5 18 10 NNW 1021,9 2,5 0 0,0
18.10.2018 07:00:00 13,4 12,5 13,3 13,7 14,9 15,9 7 4 22 12 N 1021,5 2,1 0 0,0
18.10.2018 06:00:00 13,6 12,4 13,4 13,5 15,0 15,9 15 8 24 13 N 1021,0 2,5 0 0,0
18.10.2018 05:00:00 13,7 12,1 13,0 13,0 15,2 15,9 10 5 21 11 NNW 1020,7 4,0 0 0,0
18.10.2018 04:00:00 11,5 10,5 9,2 13,3 15,4 15,9 5 3 18 10 ENE 1020,6 12 0 0,0
18.10.2018 03:00:00 13,9 11,7 12,4 13,7 15,5 15,9 14 7 22 12 NNW 1020,5 6 0 0,0
18.10.2018 02:00:00 14,3 11,6 12,6 13,9 15,7 15,9 13 7 20 11 NNW 1020,2 8 0 0,0
18.10.2018 01:00:00 14,7 11,4 13,1 14,2 15,9 15,9 11 6 17 9 NNW 1020,2 12 0 0,0
18.10.2018 00:00:00 15,2 11,2 13,2 14,5 16,1 15,9 10 5 16 9 NNW 1019,9 17 0 0,0
17.10.2018 23:00:00 15,7 11,2 13,5 14,8 16,2 15,9 10 6 16 8 NNW 1019,8 27 0 0,0
17.10.2018 22:00:00 13,9 10,4 10,5 15,5 16,4 15,9 3 2 8 4 S 1019,6 27 0 0,0
17.10.2018 21:00:00 14,6 10,7 11,8 16,4 16,5 15,9 5 3 8 4 SSW 1019,0 27 0 0,0
17.10.2018 20:00:00 15,8 11,0 10,1 17,7 16,5 15,9 3 2 8 4 WNW 1018,4 33 0 0,0
17.10.2018 19:00:00 18,3 11,6 12,6 19,5 16,3 15,9 5 3 7 4 WNW 1017,8 31 1 0,0
17.10.2018 18:00:00 22,3 10,4 19,5 21,5 15,9 15,9 0 0 6 4 N 1017,5 39 59 0,0
17.10.2018 17:00:00 23,3 9,1 23,8 22,4 15,4 15,8 3 2 10 5 ESE 1017,4 36 60 0,0
17.10.2018 16:00:00 22,9 8,5 25,0 22,1 14,8 15,8 4 2 9 5 SE 1017,6 48 60 0,0
17.10.2018 15:00:00 21,9 9,6 24,8 20,9 14,3 15,8 4 2 9 5 E 1018,0 36 60 0,0
17.10.2018 14:00:00 19,6 9,8 25,5 18,9 13,9 15,8 4 2 8 5 NNW 1018,9 29 60 0,0
17.10.2018 13:00:00 17,5 10,4 20,2 16,4 13,6 15,8 3 2 8 4 ENE 1019,4 27 60 0,0
17.10.2018 12:00:00 15,2 10,0 17,2 14,2 13,5 15,8 3 1 12 7 S 1020,0 23 60 0,0
17.10.2018 11:00:00 13,0 9,2 15,7 12,1 13,6 15,8 3 2 7 4 E 1020,3 17 60 0,0
17.10.2018 10:00:00 10,7 8,6 11,0 10,3 13,7 15,9 3 2 6 3 S 1020,4 13 36 0,0
17.10.2018 09:00:00 8,2 7,2 7,7 9,5 14,0 15,9 6 3 8 4 SSW 1020,4 11 21 0,0
17.10.2018 08:00:00 6,9 6,4 2,6 9,5 14,2 15,9 4 2 7 4 SSW 1020,2 8 0 0,0
17.10.2018 07:00:00 7,3 6,7 3,9 9,9 14,5 15,9 6 3 7 4 SSW 1020,1 9 0 0,0
17.10.2018 06:00:00 7,0 6,7 2,3 10,3 14,8 15,9 4 2 6 3 SSW 1019,8 8 0 0,0
17.10.2018 05:00:00 7,9 7,3 3,0 10,9 15,1 15,9 5 3 6 3 SSW 1019,7 12 0 0,0
17.10.2018 04:00:00 8,1 7,6 3,7 11,5 15,4 15,8 3 2 7 4 SSW 1019,8 11 0 0,0
17.10.2018 03:00:00 9,0 8,1 6,4 12,0 15,6 15,8 6 4 8 4 SSW 1019,9 15 0 0,0
17.10.2018 02:00:00 9,3 8,5 4,7 12,7 15,9 15,8 3 2 6 3 SW 1019,9 14 0 0,0
17.10.2018 01:00:00 10,2 8,6 5,6 13,4 16,2 15,8 4 2 8 4 SSW 1020,1 19 0 0,0
17.10.2018 00:00:00 11,1 9,6 6,6 14,3 16,4 15,8 5 3 8 4 SW 1020,0 18 0 0,0
16.10.2018 23:00:00 13,3 10,0 9,7 15,2 16,6 15,8 6 3 9 5 SSW 1020,0 25 0 0,0
16.10.2018 22:00:00 14,0 10,4 11,9 16,0 16,8 15,8 6 3 9 5 SSW 1019,8 23 0 0,0
16.10.2018 21:00:00 14,6 11,1 10,6 16,8 16,9 15,8 6 3 8 4 SSW 1019,4 23 0 0,0
16.10.2018 20:00:00 15,6 11,4 10,1 18,1 16,9 15,8 3 1 5 3 WSW 1019,1 23 0 0,0
16.10.2018 19:00:00 18,5 11,7 12,0 20,0 16,7 15,8 0 0 5 3 N 1018,4 26 12 0,0
16.10.2018 18:00:00 23,7 9,7 20,7 22,2 16,3 15,8 2 1 3 2 E 1017,9 41 57 0,0
16.10.2018 17:00:00 25,0 9,5 25,0 23,3 15,8 15,8 3 2 11 6 S 1018,0 47 58 0,0
16.10.2018 16:00:00 24,6 8,5 26,8 23,1 15,2 15,8 4 2 7 4 E 1018,1 59 60 0,0
16.10.2018 15:00:00 23,3 8,8 27,9 22,0 14,6 15,8 3 2 7 4 N 1018,3 33 60 0,0
16.10.2018 14:00:00 20,7 9,5 24,3 20,1 14,2 15,8 5 3 9 5 E 1018,8 26 60 0,0
16.10.2018 13:00:00 18,8 9,7 23,0 17,5 13,9 15,8 4 2 9 5 ENE 1019,2 20 60 0,0
16.10.2018 12:00:00 15,7 9,3 18,3 14,8 13,7 15,8 3 1 7 4 S 1019,6 19 60 0,0
16.10.2018 11:00:00 13,5 8,7 16,3 12,7 13,7 15,8 4 2 8 4 E 1019,9 19 60 0,0
16.10.2018 10:00:00 11,9 8,5 13,2 11,0 13,8 15,8 3 1 6 3 SE 1020,0 18 60 0,0
16.10.2018 09:00:00 10,3 8,4 8,9 10,2 14,0 15,8 0 0 4 2 N 1019,9 15 27 0,0
16.10.2018 08:00:00 7,9 6,8 4,9 10,3 14,2 15,8 4 2 5 3 S 1019,2 17 0 0,0
16.10.2018 07:00:00 7,9 6,7 6,4 10,3 14,5 15,8 3 1 6 3 SSW 1018,9 18 0 0,0
16.10.2018 06:00:00 7,1 6,3 4,0 10,1 14,8 15,8 4 2 7 4 SSW 1018,8 16 0 0,0
16.10.2018 05:00:00 7,2 6,4 4,0 10,6 15,1 15,8 6 3 8 4 SSW 1018,5 15 0 0,0
16.10.2018 04:00:00 7,6 6,7 3,0 11,1 15,4 15,8 5 3 6 4 SSW 1018,1 16 0 0,0
16.10.2018 03:00:00 7,7 6,8 3,5 11,7 15,7 15,8 3 2 6 4 SSW 1017,7 15 0 0,0
16.10.2018 02:00:00 9,0 7,8 6,0 12,3 16,0 15,8 7 4 9 5 SSW 1017,5 21 0 0,0
16.10.2018 01:00:00 9,5 8,0 4,9 13,1 16,3 15,8 6 3 6 4 SSW 1016,9 22 0 0,0
16.10.2018 00:00:00 10,7 8,7 8,1 13,9 16,6 15,8 5 3 6 3 SSW 1016,4 23 0 0,0
15.10.2018 23:00:00 12,1 9,0 7,7 14,9 16,8 15,8 5 3 9 5 SSW 1016,2 26 0 0,0
15.10.2018 22:00:00 13,0 9,7 8,0 15,9 17,0 15,8 2 1 8 4 WSW 1015,6 23 0 0,0
15.10.2018 21:00:00 13,6 10,0 9,3 16,8 17,2 15,8 5 3 6 3 SW 1015,1 23 0 0,0
15.10.2018 20:00:00 16,0 10,7 9,7 18,3 17,2 15,8 3 2 6 4 WSW 1014,6 33 0 0,0
15.10.2018 19:00:00 19,4 10,5 11,8 20,3 17,0 15,8 3 1 7 4 NW 1013,9 32 17 0,0
15.10.2018 18:00:00 24,1 8,9 19,1 22,6 16,6 15,7 4 2 10 5 SE 1013,1 44 59 0,0
15.10.2018 17:00:00 25,0 8,1 25,6 23,5 16,1 15,7 7 4 13 7 E 1012,8 42 60 0,0
15.10.2018 16:00:00 25,0 8,9 26,7 23,5 15,5 15,7 7 4 15 8 ENE 1012,7 35 60 0,0
15.10.2018 15:00:00 24,2 9,4 27,0 22,5 15,0 15,7 6 4 12 7 E 1012,9 38 60 0,0
15.10.2018 14:00:00 22,5 9,9 25,9 20,6 14,5 15,7 5 3 9 5 E 1013,4 34 60 0,0
15.10.2018 13:00:00 19,6 10,6 23,2 18,0 14,2 15,7 4 2 8 5 E 1014,2 24 60 0,0
15.10.2018 12:00:00 17,5 10,7 20,3 15,4 14,1 15,7 3 2 8 4 ENE 1014,4 23 60 0,0
15.10.2018 11:00:00 15,0 10,2 17,4 13,0 14,1 15,7 3 1 5 3 E 1014,6 18 60 0,0
15.10.2018 10:00:00 12,8 9,5 13,9 11,2 14,3 15,7 2 1 8 4 S 1014,8 16 41 0,0
15.10.2018 09:00:00 9,1 7,9 8,0 10,8 14,5 15,7 6 3 8 5 SSW 1014,4 13 0 0,0
15.10.2018 08:00:00 8,6 7,7 7,2 10,8 14,7 15,7 5 3 7 4 SSW 1013,9 15 0 0,0
15.10.2018 07:00:00 8,7 7,9 6,2 11,2 14,9 15,7 5 3 8 5 SSW 1013,0 15 0 0,0
15.10.2018 06:00:00 9,4 8,4 7,7 11,6 15,2 15,7 5 3 9 5 SSW 1012,7 16 0 0,0
15.10.2018 05:00:00 9,1 8,3 4,7 11,9 15,4 15,7 4 2 6 3 SSW 1012,6 15 0 0,0
15.10.2018 04:00:00 9,6 8,7 5,3 12,6 15,7 15,7 3 2 9 5 SSW 1012,6 17 0 0,0
15.10.2018 03:00:00 10,8 9,3 9,0 12,8 15,9 15,7 3 2 7 4 W 1012,3 24 0 0,0
15.10.2018 02:00:00 10,7 9,4 5,8 13,2 16,2 15,7 4 2 9 5 SSW 1012,2 23 0 0,0
15.10.2018 01:00:00 11,8 9,8 9,5 13,8 16,5 15,7 8 4 10 5 SSW 1011,7 25 0 0,0
15.10.2018 00:00:00 11,6 9,5 7,7 14,5 16,7 15,7 4 2 9 5 S 1011,3 27 0 0,0
14.10.2018 23:00:00 13,4 10,3 10,4 15,3 17,0 15,7 7 4 9 5 SSW 1011,3 35 0 0,0
14.10.2018 22:00:00 14,3 10,6 10,5 16,2 17,1 15,7 6 3 9 5 SSW 1010,6 34 0 0,0
14.10.2018 21:00:00 15,8 11,1 10,2 17,4 17,3 15,7 4 2 9 5 SW 1010,5 46 0 0,0
14.10.2018 20:00:00 19,5 10,9 15,6 18,8 17,2 15,7 7 4 14 7 NW 1010,3 48 0 0,0
14.10.2018 19:00:00 21,5 10,6 18,8 20,5 17,1 15,7 11 6 23 13 SE 1009,5 49 22 0,0
14.10.2018 18:00:00 23,6 10,6 22,6 22,5 16,7 15,7 15 8 24 13 SE 1009,2 58 60 0,0
14.10.2018 17:00:00 24,8 9,7 25,3 23,5 16,2 15,7 19 10 33 18 SSE 1009,7 46 60 0,0
14.10.2018 16:00:00 25,1 9,4 26,3 23,6 15,6 15,6 16 9 28 15 SSE 1009,9 37 60 0,0

tt = temperature
td = dewpoint
tt 5cm = temperature 5cm
tt -5cm = temperature -5cm
tt -20cm = temperature -20cm
tt -100cm = temperature -100cm
ff = wind speed
fx = gusts
dd = wind direction
ppp = reduced air pressure
vv = visibility
sd = sunshine duration
rr = precipitation

Next stations